This is the latest recevied weather packets stored in our database for station/object DL8GAK-13. If no packets are shown the sender has not sent any weather packets the latest 10 day(s).
| Time | Temp. | Humidity | Pressure | Rain* | Wind** | Luminosity | Snow |
|---|---|---|---|---|---|---|---|
| 1777569408 | 17.22° C | 32% | 1030.8 hPa | - | - | - | - |
| 1777568807 | 17.22° C | 33% | 1030.7 hPa | - | - | - | - |
| 1777568206 | 17.22° C | 33% | 1030.7 hPa | - | - | - | - |
| 1777567605 | 17.78° C | 33% | 1030.7 hPa | - | - | - | - |
| 1777567004 | 17.78° C | 32% | 1030.6 hPa | - | - | - | - |
| 1777566403 | 17.78° C | 32% | 1030.6 hPa | - | - | - | - |
| 1777565802 | 18.33° C | 32% | 1030.6 hPa | - | - | - | - |
| 1777565201 | 18.33° C | 32% | 1030.4 hPa | - | - | - | - |
| 1777564600 | 18.33° C | 32% | 1030.4 hPa | - | - | - | - |
| 1777563999 | 18.89° C | 32% | 1030.4 hPa | - | - | - | - |
| 1777563398 | 18.89° C | 31% | 1030.4 hPa | - | - | - | - |
| 1777562797 | 19.44° C | 30% | 1030.4 hPa | - | - | - | - |
| 1777562196 | 20° C | 31% | 1030.3 hPa | - | - | - | - |
| 1777561595 | 20.56° C | 30% | 1030.3 hPa | - | - | - | - |
| 1777560994 | 21.67° C | 29% | 1030.3 hPa | - | - | - | - |
| 1777560393 | 22.22° C | 29% | 1030.3 hPa | - | - | - | - |
| 1777559792 | 23.33° C | 29% | 1030.3 hPa | - | - | - | - |
| 1777559191 | 22.78° C | 29% | 1030.3 hPa | - | - | - | - |
| 1777558590 | 22.22° C | 30% | 1030.4 hPa | - | - | - | - |
| 1777557989 | 21.67° C | 30% | 1030.3 hPa | - | - | - | - |
| 1777557388 | 21.67° C | 31% | 1030.4 hPa | - | - | - | - |
| 1777556787 | 21.11° C | 31% | 1030.5 hPa | - | - | - | - |
| 1777556186 | 21.11° C | 31% | 1030.4 hPa | - | - | - | - |
| 1777555585 | 21.11° C | 31% | 1030.5 hPa | - | - | - | - |
| 1777554984 | 21.11° C | 31% | 1030.5 hPa | - | - | - | - |
* Rain since midnight (hover to see other rain measurements)
** Current wind speed in m/s (hover to see current wind gust speed)